www.pogodaiklimat.ru
ПОГОДА в Коканде

Архив погоды в Коканде (Ферганская область, Узбекистан)

Время
и дата
03:50 28.05
04:10 28.05
04:20 28.05
04:30 28.05
04:40 28.05
04:50 28.05
05:10 28.05
05:20 28.05
05:40 28.05
06:00 28.05
06:10 28.05
06:20 28.05
06:30 28.05
06:40 28.05
07:00 28.05
07:10 28.05
07:30 28.05
07:50 28.05
08:00 28.05
08:10 28.05
08:20 28.05
08:40 28.05
08:50 28.05
09:10 28.05
09:20 28.05
09:40 28.05
09:50 28.05
10:00 28.05
10:20 28.05
10:40 28.05
10:50 28.05
11:00 28.05
11:10 28.05
11:20 28.05
11:30 28.05
11:40 28.05
11:50 28.05
12:00 28.05
12:10 28.05
12:20 28.05
12:30 28.05
13:00 28.05
13:10 28.05
13:20 28.05
13:30 28.05
13:40 28.05
13:50 28.05
14:00 28.05
14:20 28.05
14:30 28.05
14:40 28.05
14:50 28.05
15:00 28.05
15:10 28.05
15:20 28.05
15:40 28.05
15:50 28.05
16:00 28.05
16:10 28.05
16:20 28.05
16:30 28.05
16:40 28.05
16:50 28.05
17:00 28.05
17:10 28.05
17:20 28.05
17:40 28.05
17:50 28.05
18:00 28.05
18:10 28.05
18:20 28.05
18:30 28.05
18:40 28.05
18:50 28.05
19:00 28.05
19:10 28.05
19:20 28.05
19:30 28.05
19:40 28.05
19:50 28.05
20:00 28.05
20:10 28.05
20:20 28.05
20:30 28.05
20:40 28.05
20:50 28.05
21:00 28.05
21:10 28.05
21:20 28.05
21:30 28.05
21:40 28.05
21:50 28.05
22:10 28.05
22:20 28.05
22:30 28.05
22:40 28.05
22:50 28.05
23:00 28.05
23:10 28.05
23:20 28.05
23:30 28.05
23:50 28.05
00:00 29.05
00:10 29.05
00:20 29.05
00:30 29.05
00:40 29.05
01:00 29.05
01:10 29.05
01:20 29.05
01:30 29.05
01:40 29.05
01:50 29.05
02:00 29.05
02:10 29.05
02:20 29.05
02:30 29.05
02:40 29.05
02:50 29.05
03:00 29.05
03:10 29.05
03:20 29.05
03:30 29.05
03:40 29.05
03:50 29.05
04:00 29.05
04:10 29.05
04:20 29.05
04:30 29.05
04:40 29.05
04:50 29.05
05:00 29.05
05:10 29.05
05:20 29.05
05:30 29.05
05:40 29.05
05:50 29.05
06:00 29.05
06:10 29.05
06:20 29.05
06:30 29.05
06:40 29.05
06:50 29.05
07:00 29.05
Ветер
(напр.,м/с)
Видимость Явления Солнечная радиация
(Вт/м2)
Т
(С)
Тd
(С)
f
(%)
Тe
(С)
Тes
(С)
Комфортность P
(гПа)
Po
(гПа)
Тmin
(С)
Tmax
(С)
R
(мм)
В 0.8
{1.9}
+14.8 +13.4 91 +15 +15 1025.4 966.3 +14.9 +14.7
СВ 0.9
{2.0}
+15.4 +12.2 81 +16 +16 1025.4 966.3 +15.5 +15.2
СВ 1.0
{2.0}
+15.6 +12.0 80 +16 +16 1025.5 966.4 +15.6 +15.4
В 1.0
{2.0}
+15.4 +12.1 81 +16 +16 1025.6 966.5 +15.6 +15.4
ЮВ 0.6
{1.5}
+15.3 +12.3 82 +16 +16 1025.6 966.5 +15.4 +15.3
В 1.0
{2.1}
+15.3 +12.2 82 +16 +16 1025.6 966.5 +15.3 +15.2
В 1.1
{2.1}
+15.4 +12.1 81 +16 +16 1025.9 966.8 +15.4 +15.3
ЮВ 0.6
{1.6}
+15.4 +12.1 81 +17 +17 1025.9 966.8 +15.4 +15.4
ЮВ 0.8
{1.9}
+15.8 +11.9 77 +17 +17 1026.0 966.9 +15.8 +15.3
ЮВ 0.6
{1.8}
+16.4 +11.7 74 +18 +18 1026.2 967.1 +16.4 +16.2
ЮВ 0.8
{1.8}
+16.6 +12.0 74 +18 +18 1026.2 967.1 +16.6 +16.4
ЮВ 0.6
{1.8}
+17.4 +12.2 71 +19 +19 1026.3 967.2 +17.4 +16.6
ЮВ 1.0
{2.8}
+18.8 +11.2 61 +21 +21 комфорт 1026.4 967.3 +18.8 +17.4
В 1.3
{3.4}
+19.8 +11.8 60 +22 +22 комфорт 1026.4 967.3 +19.8 +18.8
В 1.2
{2.9}
+21.3 +11.7 54 +23 +23 комфорт 1026.5 967.4 +21.2 +20.5
В 1.7
{3.3}
+21.5 +11.6 53 +24 +24 комфорт 1026.4 967.3 +21.5 +21.3
В 1.6
{3.4}
+22.1 +12.1 53 +24 +24 комфорт 1026.4 967.3 +22.2 +21.8
СВ 1.6
{2.9}
+22.6 +13.1 55 +26 +26 жарко 1026.4 967.3 +22.6 +22.2
СВ 1.3
{2.9}
+23.1 +12.9 53 +26 +26 жарко 1026.4 967.3 +23.1 +22.6
СВ 1.3
{2.6}
+23.4 +12.8 51 +26 +26 жарко 1026.5 967.4 +23.4 +23.1
В 1.6
{3.7}
+23.6 +12.8 51 +26 +26 жарко 1026.5 967.4 +23.7 +23.3
СВ 1.2
{3.1}
+24.3 +14.0 52 +27 +27 жарко 1026.4 967.3 +24.3 +24.1
СВ 1.3
{2.8}
+24.1 +12.2 48 +26 +26 жарко 1026.5 967.4 +24.4 +24.1
В 1.0
{2.4}
+24.4 +11.9 45 +26 +26 жарко 1026.4 967.3 +24.5 +24.4
СВ 1.1
{2.2}
+24.7 +11.2 43 +26 +26 жарко 1026.3 967.2 +24.6 +24.4
Ю 0.8
{2.0}
+25.6 +10.1 38 +26 +26 жарко 1026.2 967.1 +25.9 +25.6
Ю 0.9
{2.3}
+26.1 +8.3 32 +26 +26 жарко 1026.2 967.1 +26.3 +25.6
Ю 1.0
{3.1}
+26.6 +10.5 36 +27 +27 жарко 1026.2 967.1 +26.6 +26.0
ЮВ 0.9
{2.3}
+27.2 +12.1 39 +28 +28 жарко 1026.1 967.0 +27.2 +26.2
ЮВ 1.2
{3.0}
+28.0 +11.1 35 +29 +29 жарко 1026.0 966.9 +28.0 +27.2
Ю 1.5
{3.6}
+27.9 +11.0 35 +29 +29 жарко 1025.9 966.8 +28.2 +27.9
ЮЗ 1.4
{3.1}
+28.0 +10.6 34 +29 +29 жарко 1025.8 966.7 +28.3 +27.8
Ю 2.0
{4.7}
+27.9 +7.9 28 +27 +27 жарко 1025.7 966.6 +28.3 +27.9
ЮЗ 1.8
{3.7}
+28.3 +8.2 28 +28 +28 жарко 1025.5 966.4 +28.8 +27.8
ЮЗ 1.9
{3.8}
+28.5 +8.4 28 +28 +28 жарко 1025.4 966.3 +28.6 +28.2
З 1.7
{4.0}
+28.3 +9.2 30 +28 +28 жарко 1025.4 966.3 +28.5 +28.1
ЮЗ 2.0
{5.1}
+29.0 +9.2 29 +29 +29 жарко 1025.2 966.2 +29.0 +28.2
ЮЗ 2.0
{4.3}
+29.3 +6.5 24 +28 +28 жарко 1025.1 966.1 +29.3 +28.9
ЮЗ 2.0
{5.9}
+29.7 +7.8 25 +29 +29 жарко 1025.0 966.0 +29.8 +29.3
ЮЗ 2.2
{5.1}
+29.6 +6.8 24 +28 +28 жарко 1025.0 966.0 +29.7 +29.1
ЮЗ 2.4
{5.7}
+29.5 +7.4 25 +29 +29 жарко 1024.9 965.9 +29.7 +29.3
ЮЗ 2.6
{5.6}
+29.4 +5.0 21 +28 +28 жарко 1024.7 965.7 +29.6 +29.2
З 2.2
{4.8}
+29.9 +5.3 21 +28 +28 жарко 1024.6 965.6 +30.1 +29.3
З 2.0
{5.0}
+30.0 +4.8 20 +28 +28 жарко 1024.5 965.5 +30.1 +29.8
З 2.0
{5.1}
+30.0 +7.3 24 +29 +29 жарко 1024.5 965.5 +30.3 +29.9
ЮЗ 2.2
{5.0}
+30.3 +7.7 24 +29 +29 жарко 1024.4 965.4 +30.3 +30.0
ЮЗ 1.8
{5.0}
+30.4 +7.9 25 +30 +30 жарко 1024.3 965.3 +30.5 +30.2
ЮЗ 2.4
{5.0}
+30.5 +8.8 26 +30 +30 жарко 1024.2 965.2 +30.5 +30.1
ЮЗ 2.4
{5.7}
+30.9 +8.1 24 +30 +30 жарко 1024.0 965.0 +30.9 +30.7
ЮЗ 2.8
{7.7}
+31.2 +7.8 23 +30 +30 жарко 1024.0 965.0 +31.2 +30.8
ЮЗ 3.4
{7.5}
+30.8 +7.1 23 +30 +30 жарко 1023.9 964.9 +31.2 +30.7
ЮЗ 3.3
{6.5}
+30.9 +7.6 23 +30 +30 жарко 1023.8 964.8 +30.9 +30.8
ЮЗ 3.5
{6.8}
+30.9 +7.1 23 +30 +30 жарко 1023.7 964.7 +30.9 +30.6
ЮЗ 3.2
{7.8}
+31.2 +6.8 22 +30 +30 жарко 1023.6 964.6 +31.2 +30.8
ЮЗ 3.8
{10.1}
+30.5 +6.0 21 +29 +29 жарко 1023.5 964.5 +31.4 +30.6
ЮЗ 3.9
{9.6}
+30.7 +5.6 21 +29 +29 жарко 1023.6 964.6 +31.4 +30.6
ЮЗ 3.6
{8.0}
+30.6 +6.2 22 +29 +29 жарко 1023.5 964.5 +30.7 +30.4
ЮЗ 4.1
{9.4}
+30.1 +6.5 23 +29 +29 жарко 1023.5 964.5 +30.6 +30.1
ЮЗ 4.5
{10.2}
+29.8 +5.9 22 +28 +28 жарко 1023.5 964.5 +30.1 +29.6
ЮЗ 4.9
{10.9}
+29.2 +5.6 22 +28 +28 жарко 1023.5 964.5 +30.0 +29.2
ЮЗ 5.0
{11.2}
+29.1 +4.8 21 +27 +27 жарко 1023.5 964.5 +29.3 +29.1
ЮЗ 5.2
{12.8}
+28.7 +4.1 21 +27 +27 жарко 1023.5 964.5 +29.1 +28.7
ЮЗ 4.7
{10.3}
+28.8 +4.7 21 +27 +27 жарко 1023.4 964.4 +28.8 +28.7
ЮЗ 5.0
{12.9}
+28.9 +4.5 21 +27 +27 жарко 1023.4 964.4 +29.0 +28.8
ЮЗ 5.1
{10.8}
+28.6 +4.3 21 +27 +27 жарко 1023.4 964.4 +28.9 +28.6
ЮЗ 4.7
{11.6}
+28.5 +4.5 22 +27 +27 жарко 1023.3 964.3 +28.8 +28.5
ЮЗ 4.2
{9.9}
+28.1 +4.3 22 +27 +27 жарко 1023.4 964.4 +28.2 +28.1
ЮЗ 5.4
{12.4}
+28.0 +4.2 22 +27 +27 жарко 1023.4 964.4 +28.1 +27.9
ЮЗ 5.1
{10.7}
+28.4 +4.1 21 +27 +27 жарко 1023.5 964.5 +28.4 +28.0
ЮЗ 4.7
{9.5}
+28.1 +4.3 22 +27 +27 жарко 1023.5 964.5 +28.4 +28.1
ЮЗ 4.9
{9.8}
+27.7 +4.1 22 +26 +26 жарко 1023.7 964.7 +28.1 +27.7
ЮЗ 5.4
{11.9}
+27.6 +3.9 22 +26 +26 жарко 1023.7 964.7 +27.7 +27.6
ЮЗ 5.3
{12.1}
+27.5 +3.8 22 +26 +26 жарко 1023.8 964.8 +27.6 +27.5
ЮЗ 5.0
{10.9}
+27.5 +3.7 22 +26 +26 жарко 1023.9 964.9 +27.5 +27.5
ЮЗ 5.3
{11.4}
+27.4 +3.5 22 +26 +26 жарко 1024.0 965.0 +27.5 +27.4
ЮЗ 4.9
{11.3}
+26.9 +3.7 22 +26 +26 жарко 1024.2 965.2 +27.4 +26.9
ЮЗ 4.8
{9.7}
+26.7 +3.4 22 +25 +25 комфорт 1024.3 965.3 +26.9 +26.7
ЮЗ 4.9
{9.1}
+26.4 +3.6 23 +25 +25 комфорт 1024.4 965.4 +26.7 +26.4
ЮЗ 4.0
{7.7}
+26.1 +3.7 23 +25 +25 комфорт 1024.5 965.5 +26.4 +26.1
ЮЗ 4.2
{8.9}
+26.0 +3.6 24 +25 +25 комфорт 1024.6 965.6 +26.1 +26.0
ЮЗ 3.9
{7.8}
+25.8 +3.6 24 +25 +25 комфорт 1024.8 965.8 +26.0 +25.8
ЮЗ 3.8
{7.2}
+25.6 +3.5 24 +25 +25 комфорт 1024.9 965.9 +25.8 +25.6
ЮЗ 3.9
{9.1}
+25.4 +3.3 24 +24 +24 комфорт 1024.9 965.9 +25.6 +25.4
ЮЗ 3.9
{8.5}
+25.3 +3.1 24 +24 +24 комфорт 1024.9 965.9 +25.5 +25.3
ЮЗ 3.8
{8.4}
+25.2 +3.0 24 +24 +24 комфорт 1025.2 966.1 +25.3 +25.2
ЮЗ 3.5
{7.0}
+25.1 +2.9 24 +24 +24 комфорт 1025.3 966.2 +25.2 +25.1
ЮЗ 4.1
{9.0}
+25.1 +2.8 23 +24 +24 комфорт 1025.4 966.3 +25.2 +25.1
ЮЗ 3.2
{7.5}
+24.9 +3.0 24 +24 +24 комфорт 1025.4 966.3 +25.1 +24.9
ЮЗ 3.9
{8.2}
+24.8 +2.9 24 +24 +24 комфорт 1025.5 966.4 +24.9 +24.8
ЮЗ 3.8
{8.0}
+24.7 +3.1 25 +24 +24 комфорт 1025.5 966.4 +24.8 +24.7
ЮЗ 3.5
{7.0}
+24.3 +3.5 26 +24 +24 комфорт 1025.5 966.4 +24.7 +24.3
ЮЗ 3.1
{6.6}
+23.7 +4.2 28 +23 +23 комфорт 1025.5 966.4 +24.3 +23.8
ЮЗ 3.1
{6.5}
+23.1 +4.6 30 +23 +23 комфорт 1025.3 966.2 +23.4 +23.1
ЮЗ 3.7
{7.0}
+23.1 +4.4 30 +23 +23 комфорт 1025.2 966.1 +23.2 +23.1
ЮЗ 3.5
{7.4}
+22.9 +4.2 29 +23 +23 комфорт 1025.2 966.1 +23.1 +22.9
ЮЗ 3.9
{9.3}
+23.2 +3.6 28 +23 +23 комфорт 1025.2 966.1 +23.2 +22.9
ЮЗ 4.1
{8.2}
+23.2 +3.5 28 +23 +23 комфорт 1025.1 966.0 +23.3 +23.2
ЮЗ 3.2
{6.8}
+22.7 +3.7 29 +23 +23 комфорт 1025.2 966.1 +23.2 +22.8
ЮЗ 3.3
{7.7}
+22.8 +2.9 27 +22 +22 комфорт 1025.3 966.2 +22.8 +22.6
ЮЗ 3.2
{7.0}
+23.1 +2.4 26 +23 +23 комфорт 1025.4 966.3 +23.1 +22.8
ЮЗ 4.0
{8.4}
+23.1 +2.4 26 +23 +23 комфорт 1025.4 966.3 +23.1 +23.1
ЮЗ 3.8
{7.7}
+22.9 +2.4 26 +22 +22 комфорт 1025.4 966.3 +23.0 +22.9
ЮЗ 2.8
{5.8}
+22.7 +2.2 26 +22 +22 комфорт 1025.5 966.4 +22.9 +22.7
ЮЗ 2.5
{6.9}
+22.5 +2.3 27 +22 +22 комфорт 1025.6 966.5 +22.7 +22.5
ЮЗ 2.5
{5.9}
+22.4 +2.4 27 +22 +22 комфорт 1025.6 966.5 +22.5 +22.4
ЮЗ 3.1
{6.5}
+22.3 +2.4 27 +22 +22 комфорт 1025.6 966.5 +22.4 +22.2
ЮЗ 3.4
{6.8}
+22.2 +2.5 27 +22 +22 комфорт 1025.5 966.4 +22.3 +22.2
ЮЗ 3.6
{7.2}
+22.0 +2.7 28 +22 +22 комфорт 1025.5 966.4 +22.0 +21.9
ЮЗ 3.5
{7.2}
+21.8 +2.8 29 +22 +22 комфорт 1025.5 966.4 +22.0 +21.8
ЮЗ 3.3
{7.7}
+21.7 +2.8 29 +22 +22 комфорт 1025.4 966.3 +21.8 +21.7
ЮЗ 2.8
{4.9}
+21.6 +2.8 29 +22 +22 комфорт 1025.3 966.2 +21.7 +21.5
ЮЗ 2.2
{4.5}
+21.4 +2.7 29 +21 +21 комфорт 1025.3 966.2 +21.6 +21.4
ЮЗ 2.2
{5.5}
+21.4 +2.6 29 +21 +21 комфорт 1025.4 966.3 +21.5 +21.3
ЮЗ 2.1
{4.9}
+21.4 +2.6 29 +21 +21 комфорт 1025.5 966.4 +21.5 +21.4
ЮЗ 2.0
{3.9}
+21.6 +2.2 28 +21 +21 комфорт 1025.5 966.4 +21.7 +21.4
ЮЗ 1.6
{4.1}
+21.5 +2.3 28 +21 +21 комфорт 1025.5 966.4 +21.7 +21.5
ЮЗ 1.5
{3.6}
+21.3 +2.2 28 +21 +21 комфорт 1025.5 966.4 +21.5 +21.2
ЮЗ 1.7
{3.7}
+21.2 +2.2 28 +21 +21 комфорт 1025.5 966.4 +21.3 +21.2
ЮЗ 2.0
{4.0}
+21.2 +2.2 28 +21 +21 комфорт 1025.6 966.5 +21.4 +21.2
ЮЗ 2.1
{4.0}
+21.3 +2.2 28 +21 +21 комфорт 1025.6 966.5 +21.3 +21.2
ЮЗ 1.8
{4.8}
+20.9 +3.0 31 +22 +22 комфорт 1025.6 966.5 +21.3 +20.9
ЮЗ 2.3
{4.9}
+20.6 +5.1 36 +22 +22 комфорт 1025.7 966.6 +20.9 +20.7
ЮЗ 2.1
{4.4}
+20.3 +5.8 39 +22 +22 комфорт 1025.7 966.6 +20.6 +20.3
ЮЗ 2.5
{5.0}
+20.1 +6.5 41 +21 +21 комфорт 1025.8 966.7 +20.3 +20.1
ЮЗ 2.3
{4.7}
+20.0 +6.6 42 +21 +21 комфорт 1025.8 966.7 +20.1 +19.9
ЮЗ 2.7
{5.2}
+19.9 +6.5 42 +21 +21 комфорт 1025.8 966.7 +20.0 +19.9
ЮЗ 2.8
{6.2}
+19.9 +6.3 41 +21 +21 комфорт 1025.9 966.8 +20.0 +19.8
ЮЗ 2.0
{4.9}
+19.6 +6.1 41 +21 +21 комфорт 1026.0 966.9 +19.9 +19.6
ЮЗ 2.6
{5.3}
+19.7 +5.9 40 +21 +21 комфорт 1026.0 966.9 +19.7 +19.6
ЮЗ 2.5
{4.9}
+19.7 +5.9 41 +21 +21 комфорт 1026.0 966.9 +19.7 +19.6
ЮЗ 2.5
{4.4}
+19.6 +5.9 41 +21 +21 комфорт 1026.0 966.9 +19.7 +19.5
ЮЗ 3.0
{5.8}
+19.7 +5.9 41 +21 +21 комфорт 1026.1 967.0 +19.7 +19.6
ЮЗ 2.8
{5.9}
+19.7 +6.0 41 +21 +21 комфорт 1026.2 967.1 +19.7 +19.6
ЮЗ 3.3
{6.8}
+19.6 +6.3 42 +20 +20 1026.2 967.1 +19.7 +19.5
ЮЗ 2.9
{6.7}
+19.6 +6.3 42 +21 +21 комфорт 1026.2 967.1 +19.6 +19.5
З 2.0
{4.2}
+19.7 +6.5 42 +21 +21 комфорт 1026.4 967.3 +19.8 +19.6
СЗ 1.6
{3.5}
+19.3 +7.1 45 +21 +21 комфорт 1026.5 967.4 +19.7 +19.3
СЗ 1.4
{3.0}
+19.1 +7.3 46 +21 +21 комфорт 1026.7 967.6 +19.3 +19.0
СЗ 1.1
{2.8}
+19.5 +7.2 45 +21 +21 комфорт 1026.8 967.7 +19.5 +19.1
З 0.7
{1.8}
+19.9 +7.2 44 +22 +22 комфорт 1026.8 967.7 +19.9 +19.5
З 1.0
{2.8}
+20.0 +6.5 41 +22 +22 комфорт 1026.8 967.7 +20.1 +19.9
З 1.0
{2.7}
+20.1 +6.7 42 +22 +22 комфорт 1026.9 967.8 +20.1 +20.0
ЮЗ 1.2
{2.4}
+20.6 +6.7 41 +23 +23 комфорт 1026.9 967.8 +20.6 +20.1
ЮЗ 1.9
{4.0}
+20.7 +6.8 40 +22 +22 комфорт 1027.0 967.9 +20.7 +20.6
Местоположение метеостанции Коканд (Ферганская область, Узбекистан): широта 40.55 долгота 70.95 высота над уровнем моря 0 м.
В архиве по умолчанию представлена погода в Коканде за последние 1-2 суток. Обновление информации о фактической погоде в базе происходит ежечасно! Архивные данные за месяц целиком и за предыдущие месяцы Вы можете получить, выбрав интересующий диапазон дат из раскрывающегося списка и нажав кнопку "Ввод!".
*Определитесь, кто Вы:
Внимание! Время в таблицах - местное (без учета летнего времени). Для получения всемирного времени необходимо вычесть поправку, которая равна 5 ч.
Смотрите также архив погоды на ближайших метеорологических станциях:
Партнеры нашего сайта:      
Пояснения к столбцам:
  • Ветер - указаны скорость ветра в м/с - средняя за 10 мин, порывы в срок и между сроками (в фигурных скобках) и направление, откуда дует ветер: С - северный,
  • СВ - северо-восточный, В - восточный, ЮВ - юго-восточный, Ю - южный, ЮЗ - юго-западный, З - западный, СЗ - северо-западный.
  • Видимость - горизонтальная дальность видимости в метрах или километрах. При видимости от 1 до 10 км при отсутствии осадков обычно наблюдается дымка, при ухудшении видимости до 1 км и менее - туман. В сухую погоду видимость может ухудшаться дымом, пылью или мглою.
  • Явления - указаны атмосферные явления, наблюдавшиеся в срок или в последний час перед сроком.
  • Солнечная радиация - мощность потока солнечного излучения на поверхность земли и предметов в Вт/м2.
  • T - Температура воздуха - температура, измеренная на высоте 2 м над землей.
  • Td - Температура точки росы - температура, при понижении до которой содержащийся в воздухе водяной пар достигнет насыщения.
  • f - Относительная влажность воздуха - влажноcть воздуха, измеренная на высоте 2 м над землей.
  • Te - Эффективная температура - температура, которую ощущает одетый по сезону человек в тени. Характеристика душности погоды. При расчете учитывается влияние влажности воздуха и скорости ветра на теплоощущения человека.
  • Tes - Эффективная температура на солнце - температура, которую ощущает человек, с поправкой на солнечный нагрев. Характеристика знойности погоды. Зависит от высоты солнца над горизонтом, облачности и скорости ветра. Ночью, в пасмурную погоду, а также при ветре 12 м/с и более поправка равна нулю.
  • P - Атмосферное давление - приведенное к уровню моря атмосферное давление.
  • Po - Атмосферное давление - измеренное на уровне метеостанции атмосферное давление.
  • Tmin - Минимальная температура - минимум температуры воздуха на высоте 2 м над землей.
  • Tmax - Максимальная температура - максимум температуры воздуха на высоте 2 м над землей.
  • R - Количество осадков - Количество выпавших осадков за период времени, мм. При наведении курсора мыши на число - период времени, за который выпало указанное количество осадков.